Thursday, October 19, 2017, 7:09 AM EDT
Back to Local

KFMH, Otis Air National Guard Base

Location: Mashpee, MA, United States Lat: 41.65
Local Time: 7:09 AM EDT (11:09 GMT) Lon: -70.517
Time Zone: US/Eastern Elev: 131 ft

Show me the last for .
Show Coded

Time T Td Feel RH Dir Speed Gust Alt SLP Vis Weather Sky Remarks
2017-10-19 06:55 50 50 - 100 - Calm - 30.26 - 0 FG OVC002 None
2017-10-19 06:35 48 48 - 100 - Calm - 30.26 - 0 FG OVC002 None
2017-10-19 06:15 46 48 - 107 - Calm - 30.26 - 0 FG OVC002 None
2017-10-19 05:55 48 48 - 100 - Calm - 30.26 - 10 MIFG CLR None
2017-10-19 05:35 45 45 - 100 - Calm - 30.27 - 10 MIFG CLR None
2017-10-19 05:15 45 45 - 100 - Calm - 30.27 - 10 MIFG CLR None
2017-10-19 04:55 45 45 - 100 - Calm - 30.27 - 10 CLR None
2017-10-19 04:35 46 46 - 100 - Calm - 30.27 - 10 CLR None
2017-10-19 04:15 48 48 - 100 - Calm - 30.26 - 10 CLR None
2017-10-19 03:55 46 46 - 100 - Calm - 30.26 - 10 CLR None
2017-10-19 03:35 45 45 - 100 - Calm - 30.27 - 0 FG OVC001 None
2017-10-19 03:15 46 46 - 100 - Calm - 30.27 - 0 FG BKN001 None
2017-10-19 02:55 45 45 - 100 - Calm - 30.27 - 10 CLR None
2017-10-19 02:35 45 45 - 100 - Calm - 30.28 - 0 FG BKN001 None
2017-10-19 02:15 45 45 - 100 - Calm - 30.28 - 0 FG VV005 None
2017-10-19 01:55 45 45 - 100 - Calm - 30.28 - 10 CLR None
2017-10-19 01:35 46 46 - 100 - Calm - 30.28 - 10 CLR None
2017-10-19 01:15 45 45 - 100 - Calm - 30.29 - 0 FG BKN001 None
2017-10-19 00:55 46 46 - 100 - Calm - 30.29 - 10 CLR None
2017-10-19 00:35 48 48 - 100 - Calm - 30.29 - 10 CLR None
2017-10-19 00:15 48 48 - 100 - Calm - 30.29 - 10 CLR None
2017-10-18 23:55 48 48 - 100 - Calm - 30.29 - 10 CLR None
2017-10-18 23:35 48 48 - 100 - Calm - 30.29 - 9 FEW022 SCT027 None
2017-10-18 23:15 46 46 - 100 - Calm - 30.29 - 10 CLR None
2017-10-18 22:55 50 50 49 100 240° 3 - 30.30 - 9 CLR None
2017-10-18 22:35 48 48 - 100 - Calm - 30.31 - 10 CLR None
2017-10-18 22:15 48 48 - 100 - Calm - 30.30 - 1 BR CLR None
2017-10-18 21:55 52 52 - 100 - Calm - 30.30 - 10 CLR None
2017-10-18 21:35 52 52 - 100 220° 3 - 30.30 - 10 CLR None
2017-10-18 21:15 52 52 - 100 - Calm - 30.30 - 10 CLR None
2017-10-18 20:55 52 52 - 100 - Calm - 30.30 - 10 CLR None
2017-10-18 20:35 54 54 - 100 - Calm - 30.29 - 10 CLR None
2017-10-18 20:15 54 54 - 100 - Calm - 30.29 - 10 CLR None
2017-10-18 19:55 55 54 - 93 - Calm - 30.28 - 10 CLR None
2017-10-18 19:35 55 54 - 93 200° 5 - 30.28 - 10 CLR None
2017-10-18 19:15 55 54 - 93 220° 6 - 30.28 - 10 CLR None
2017-10-18 18:55 57 54 - 87 230° 3 - 30.28 - 10 CLR None
2017-10-18 18:35 57 54 - 87 220° 5 - 30.27 - 10 CLR None
2017-10-18 18:15 59 54 - 82 240° 6 - 30.26 - 10 CLR None
2017-10-18 17:55 61 54 - 77 230° 7 - 30.26 - 10 CLR None
2017-10-18 17:35 63 54 - 72 230° 9 - 30.26 - 10 CLR None
2017-10-18 17:15 64 54 - 67 220° 8 - 30.25 - 10 CLR None
2017-10-18 16:55 66 52 - 59 240° 8 - 30.24 - 10 CLR None
2017-10-18 16:35 66 52 - 59 220° 9 - 30.24 - 10 CLR None
2017-10-18 16:15 66 50 - 55 240° 8 - 30.24 - 10 CLR None
2017-10-18 15:55 68 50 - 52 220° 9 - 30.24 - 10 CLR None
2017-10-18 15:35 66 50 - 55 230° 9 15 30.24 - 10 CLR None
2017-10-18 15:15 66 50 - 55 250° 10 - 30.24 - 10 CLR None
2017-10-18 14:55 68 50 - 52 220° 10 - 30.24 - 10 CLR None
2017-10-18 14:35 68 48 - 49 240° 7 - 30.24 - 10 None
2017-10-18 14:15 68 48 - 49 270° 7 - 30.23 - 0 None
2017-10-18 13:55 68 48 - 49 260° 8 15 30.23 - 9 CLR None
2017-10-18 13:35 68 48 - 49 260° 10 - 30.24 - 10 CLR None
2017-10-18 13:15 66 48 - 52 260° 9 - 30.24 - 10 CLR None
2017-10-18 12:55 66 46 - 48 270° 12 - 30.26 - 10 CLR None
2017-10-18 12:35 66 46 - 48 270° 10 - 30.27 - 10 CLR None
2017-10-18 12:15 66 46 - 48 280° 12 - 30.27 - 10 CLR None
2017-10-18 11:55 64 45 - 48 290° 9 - 30.28 - 10 CLR None
2017-10-18 11:35 64 45 - 48 260° 10 - 30.28 - 10 CLR None
2017-10-18 11:15 63 46 - 55 270° 10 17 30.28 - 10 CLR None
2017-10-18 10:55 63 45 - 51 270° 10 - 30.28 - 10 CLR None
2017-10-18 10:35 63 45 - 51 260° 13 - 30.28 - 10 CLR None
2017-10-18 10:15 63 45 - 51 270° 12 - 30.28 - 10 CLR None
2017-10-18 09:55 61 45 - 55 260° 12 - 30.28 - 10 CLR None
2017-10-18 09:35 59 43 - 54 250° 14 - 30.28 - 10 CLR None
2017-10-18 09:15 59 43 - 54 260° 15 - 30.28 - 10 CLR None
2017-10-18 08:35 57 43 - 58 250° 10 - 30.27 - 10 CLR None
2017-10-18 08:15 55 43 - 62 250° 10 - 30.27 - 10 CLR None
2017-10-18 07:55 54 43 - 66 250° 9 - 30.27 - 10 CLR None
2017-10-18 07:35 52 41 - 66 240° 9 28 30.27 - 10 CLR None
2017-10-18 07:15 50 41 47 71 240° 8 - 30.26 - 10 CLR None

Support USWX by starting your Amazon purchase here.